[[{"header":{"parameterUnit":"m.s-1","parameterCategory":1,"la1":30.2991,"la2":30.254,"lo1":-89.0895,"lo2":-89.0444,"dy":0.0017,"dx":0.0017,"nx":28,"ny":28,"refTime":"2024-03-27T03:00:00:Z","depth":0,"parameterNumber":2,"parameterNumberName":"U-component_of_WINDS"},"data":[0,0,0,0,0,0,0,0,0,0,0,0,0,0,0,0,0,0,0,0,0,0,0,0,0,0,0,0,0,0,0,0,0,0,0,0,0,0,0,0,0,0,0,0,0,0,0,0,0,0,0,0,0,0,0,0,0,0,-0.1474,-0.1475,0,-0.1557,-0.1558,-0.1559,-0.1605,-0.1606,-0.1606,-0.1606,-0.1692,-0.1694,-0.1696,0,0,0,0,0,0,0,0,0,0,0,0,0,-0.1357,-0.1359,-0.1474,-0.1475,-0.1476,-0.1556,-0.1558,-0.1559,-0.1605,-0.1606,-0.1606,-0.1606,-0.1691,-0.1693,-0.1696,0,0,0,0,0,0,0,0,0,0,0,0,0,-0.1421,-0.136,-0.1474,-0.1509,-0.1513,-0.1556,-0.1558,-0.1559,-0.1605,-0.1606,-0.1606,-0.1606,-0.169,-0.1693,-0.1696,-0.1711,0,0,-0.1706,-0.1707,0,0,0,0,0,0,0,0,-0.1417,-0.1425,-0.1503,-0.1507,-0.1511,-0.1571,-0.1548,-0.161,-0.1605,-0.157,-0.1606,-0.1606,-0.1651,-0.1658,-0.1673,-0.1715,-0.1719,-0.1706,-0.1708,-0.171,-0.1711,0,0,0,0,0,0,0,-0.1413,-0.1422,-0.1507,-0.1504,-0.1509,-0.1521,-0.153,-0.156,-0.1609,-0.1573,-0.1577,-0.1586,-0.1654,-0.1669,-0.1675,-0.172,-0.1706,-0.1709,-0.1711,-0.1712,-0.1778,-0.1778,0,0,0,0,0,0,-0.1403,-0.1418,-0.1504,-0.1509,-0.1464,-0.1523,-0.1533,-0.1552,-0.1608,-0.1617,-0.1586,-0.1588,-0.1664,-0.1671,-0.1678,-0.1699,-0.171,-0.1713,-0.1714,-0.1779,-0.1778,-0.1778,0,0,0,0,0,0,-0.14,-0.141,-0.1501,-0.1465,-0.1477,-0.1525,-0.1545,-0.1553,-0.1569,-0.1618,-0.1627,-0.1593,-0.1664,-0.1674,-0.1702,-0.1703,-0.1714,-0.1717,-0.1779,-0.1778,-0.1778,-0.1741,0,0,0,0,0,0,-0.1396,-0.1409,-0.1415,-0.1464,-0.1479,-0.1523,-0.1545,-0.1555,-0.1574,-0.1578,-0.1627,-0.1635,-0.1665,-0.1697,-0.1706,-0.1707,-0.1719,-0.1779,-0.1779,-0.1778,-0.1743,-0.174,-0.1737,0,0,0,0,0,-0.1392,-0.1401,-0.1415,-0.1425,-0.1487,-0.1523,-0.1532,-0.1566,-0.1574,-0.1581,-0.1612,-0.1634,-0.1701,-0.17,-0.171,-0.1712,-0.1779,-0.1779,-0.1778,-0.1744,-0.174,-0.1737,0,0,0,0,0,0,-0.1351,-0.1409,-0.1424,-0.145,-0.1481,-0.1531,-0.1541,-0.1561,-0.1591,-0.1594,-0.1635,-0.1646,-0.167,-0.1694,-0.1692,-0.1729,-0.1743,-0.1744,-0.1713,-0.171,-0.1707,-0.1701,-0.1722,0,0,0,0,0,-0.1345,-0.1369,-0.1418,-0.1436,-0.1451,-0.1493,-0.151,-0.1533,-0.1568,-0.1582,-0.1615,-0.1648,-0.1676,-0.1695,-0.1724,-0.1746,-0.1757,-0.1753,-0.175,-0.1747,-0.1749,-0.1762,-0.176,-0.1777,-0.1777,-0.1777,0,0,-0.1333,-0.1367,-0.138,-0.1429,-0.1456,-0.148,-0.1504,-0.1529,-0.1547,-0.1586,-0.1615,-0.164,-0.1679,-0.1705,-0.1718,-0.1725,-0.1746,-0.1747,-0.1745,-0.1747,-0.1761,-0.176,-0.1758,-0.1777,-0.1777,-0.1777,0,0,-0.1324,-0.1352,-0.137,-0.1396,-0.1437,-0.1464,-0.1468,-0.1515,-0.1533,-0.1563,-0.1592,-0.1614,-0.1663,-0.169,-0.1709,-0.1708,-0.173,-0.1717,-0.1703,-0.1715,-0.1714,-0.1713,-0.1713,-0.1712,-0.1717,-0.1717,-0.1717,0,-0.1304,-0.1341,-0.1377,-0.14,-0.142,-0.1455,-0.1473,-0.1497,-0.1545,-0.1558,-0.1566,-0.1627,-0.1656,-0.1688,-0.1688,-0.1703,-0.1709,-0.1712,-0.1711,-0.1711,-0.171,-0.171,-0.171,-0.1716,-0.1716,-0.1716,-0.1716,0,-0.1315,-0.134,-0.135,-0.1394,-0.1416,-0.1436,-0.1475,-0.1492,-0.1513,-0.154,-0.1569,-0.1605,-0.1641,-0.1651,-0.1672,-0.1685,-0.1689,-0.1703,-0.1717,-0.1706,-0.1707,-0.1707,-0.1713,-0.1714,-0.1714,-0.1715,0,0,-0.1283,-0.1346,-0.1349,-0.137,-0.1416,-0.1437,-0.1458,-0.1494,-0.1508,-0.1539,-0.1558,-0.1598,-0.1611,-0.1634,-0.1658,-0.1669,-0.1666,-0.1682,-0.1684,-0.1678,-0.1682,-0.1671,-0.1671,-0.1679,-0.168,-0.168,-0.1679,0,-0.1281,-0.1321,-0.1353,-0.1382,-0.1405,-0.1438,-0.1457,-0.1487,-0.1513,-0.1536,-0.1564,-0.1592,-0.1607,-0.1621,-0.1633,-0.1663,-0.1667,-0.1664,-0.1698,-0.1699,-0.1687,-0.1671,-0.166,-0.1657,-0.1679,-0.168,-0.168,0,-0.1283,-0.1313,-0.1344,-0.1387,-0.1398,-0.1414,-0.1449,-0.1471,-0.1506,-0.1524,-0.1548,-0.1573,-0.1597,-0.1608,-0.1642,-0.1639,-0.1655,-0.1672,-0.1672,-0.1677,-0.1689,-0.1676,-0.1658,-0.1657,-0.168,-0.168,-0.168,0,-0.1257,-0.1305,-0.1329,-0.1346,-0.1397,-0.1407,-0.1429,-0.1465,-0.1483,-0.1513,-0.1526,-0.1558,-0.1576,-0.1601,-0.1634,-0.1639,-0.1664,-0.1678,-0.1679,-0.1678,-0.1684,-0.1683,-0.1668,-0.1693,-0.1693,-0.1693,-0.1693,0,-0.1251,-0.1269,-0.1318,-0.1333,-0.1353,-0.1389,-0.1409,-0.1433,-0.1464,-0.1484,-0.1515,-0.1533,-0.1575,-0.1599,-0.1625,-0.1649,-0.1657,-0.1671,-0.1678,-0.1669,-0.1667,-0.168,-0.1681,-0.1693,-0.1693,-0.1693,-0.1693,0,-0.1226,-0.1259,-0.1288,-0.1334,-0.1346,-0.1359,-0.1398,-0.1413,-0.144,-0.1465,-0.1473,-0.1514,-0.1543,-0.1578,-0.1619,-0.1636,-0.1658,-0.1668,-0.1646,-0.165,-0.1649,-0.1649,-0.1642,-0.1643,-0.1667,-0.1667,-0.1667,0,-0.122,-0.1234,-0.1281,-0.1296,-0.1317,-0.1342,-0.1361,-0.1397,-0.1415,-0.1456,-0.1466,-0.1498,-0.1525,-0.1569,-0.1603,-0.1634,-0.1645,-0.1641,-0.165,-0.164,-0.1645,-0.1644,-0.1646,-0.1639,-0.1638,-0.1638,-0.1637,0,-0.1206,-0.1222,-0.1248,-0.128,-0.1301,-0.1328,-0.1356,-0.1367,-0.1409,-0.1428,-0.1458,-0.1478,-0.1519,-0.155,-0.1585,-0.1608,-0.1629,-0.1634,-0.1636,-0.1627,-0.1614,-0.1621,-0.1639,-0.1634,-0.1635,-0.1635,-0.1635,-0.1635,-0.1191,-0.1205,-0.1239,-0.1267,-0.1292,-0.1317,-0.1334,-0.1361,-0.1387,-0.1423,-0.1442,-0.1471,-0.1505,-0.1554,-0.1576,-0.1599,-0.1607,-0.161,-0.1611,-0.1611,-0.1608,-0.1609,-0.1606,-0.1606,-0.1606,-0.1606,-0.1606,0,-0.1178,-0.1202,-0.1227,-0.1265,-0.1287,-0.1304,-0.1336,-0.1353,-0.1378,-0.1408,-0.1433,-0.1467,-0.1497,-0.1532,-0.1564,-0.1576,-0.1586,-0.1583,-0.1583,-0.1587,-0.1599,-0.1595,-0.1574,-0.1574,-0.1574,-0.1574,-0.1574,-0.1574,-0.1175,-0.1199,-0.1218,-0.1254,-0.1278,-0.1307,-0.1323,-0.1346,-0.137,-0.1406,-0.1431,-0.1453,-0.1485,-0.1519,-0.1547,-0.1557,-0.1567,-0.156,-0.1573,-0.1584,-0.1587,-0.1589,-0.1585,-0.1562,-0.1562,-0.1559,-0.1559,-0.1559]},{"header":{"parameterUnit":"m.s-1","parameterCategory":1,"la1":30.2991,"la2":30.254,"lo1":-89.0895,"lo2":-89.0444,"dy":0.0017,"dx":0.0017,"nx":28,"ny":28,"refTime":"2024-03-27T03:00:00:Z","depth":0,"parameterNumber":3,"parameterNumberName":"V-component_of_WINDS"},"data":[0,0,0,0,0,0,0,0,0,0,0,0,0,0,0,0,0,0,0,0,0,0,0,0,0,0,0,0,0,0,0,0,0,0,0,0,0,0,0,0,0,0,0,0,0,0,0,0,0,0,0,0,0,0,0,0,0,0,-6.6211,-6.6212,0,-6.6319,-6.6321,-6.6322,-6.6294,-6.6292,-6.629,-6.6287,-6.6392,-6.6396,-6.6401,0,0,0,0,0,0,0,0,0,0,0,0,0,-6.5973,-6.5977,-6.621,-6.6212,-6.6213,-6.6319,-6.6321,-6.6322,-6.6294,-6.6292,-6.6289,-6.6287,-6.639,-6.6396,-6.6402,0,0,0,0,0,0,0,0,0,0,0,0,0,-6.6078,-6.5979,-6.621,-6.6212,-6.6213,-6.6319,-6.6321,-6.6322,-6.6295,-6.6291,-6.6288,-6.6285,-6.6388,-6.6395,-6.6402,-6.651,0,0,-6.6424,-6.6427,0,0,0,0,0,0,0,0,-6.6072,-6.6087,-6.6211,-6.6212,-6.6214,-6.629,-6.6275,-6.6385,-6.6295,-6.6264,-6.6287,-6.6284,-6.636,-6.6369,-6.6396,-6.6515,-6.6519,-6.6425,-6.6429,-6.6432,-6.6434,0,0,0,0,0,0,0,-6.6065,-6.6082,-6.6253,-6.6212,-6.6214,-6.6206,-6.6217,-6.6296,-6.6328,-6.6266,-6.6264,-6.6278,-6.636,-6.639,-6.6399,-6.6521,-6.6425,-6.6431,-6.6435,-6.6438,-6.6735,-6.6738,0,0,0,0,0,0,-6.6057,-6.6076,-6.625,-6.6256,-6.6134,-6.6213,-6.6225,-6.6269,-6.6327,-6.6333,-6.6281,-6.6276,-6.6379,-6.639,-6.6402,-6.6534,-6.6432,-6.6439,-6.6443,-6.6731,-6.6736,-6.674,0,0,0,0,0,0,-6.6052,-6.6073,-6.6245,-6.6166,-6.6187,-6.622,-6.6269,-6.6272,-6.6302,-6.6338,-6.6343,-6.6305,-6.6377,-6.6392,-6.6484,-6.6537,-6.6442,-6.6448,-6.6727,-6.6733,-6.6738,-6.6797,0,0,0,0,0,0,-6.6046,-6.6071,-6.6114,-6.6167,-6.6192,-6.6328,-6.6272,-6.6277,-6.6315,-6.631,-6.6363,-6.6368,-6.6376,-6.6474,-6.6491,-6.6545,-6.6454,-6.6722,-6.673,-6.6736,-6.679,-6.6803,-6.6815,0,0,0,0,0,-6.6037,-6.6124,-6.6116,-6.6137,-6.6246,-6.6331,-6.6344,-6.6353,-6.6319,-6.6362,-6.6385,-6.6366,-6.6528,-6.6484,-6.6503,-6.6559,-6.6719,-6.6728,-6.6735,-6.6785,-6.6801,-6.6815,0,0,0,0,0,0,-6.6073,-6.6131,-6.6123,-6.623,-6.6276,-6.6326,-6.638,-6.637,-6.6424,-6.6418,-6.6424,-6.6436,-6.6531,-6.6554,-6.6503,-6.6668,-6.6618,-6.6631,-6.6649,-6.6665,-6.6677,-6.6669,-6.646,0,0,0,0,0,-6.6094,-6.616,-6.6206,-6.6296,-6.632,-6.6346,-6.6383,-6.6387,-6.6433,-6.6452,-6.6482,-6.6526,-6.6587,-6.6627,-6.6685,-6.6793,-6.6804,-6.6842,-6.6854,-6.6864,-6.6875,-6.6935,-6.6952,-6.6766,-6.6766,-6.6766,0,0,-6.6136,-6.6177,-6.6217,-6.6305,-6.6341,-6.6408,-6.6362,-6.6435,-6.6484,-6.6462,-6.6552,-6.6576,-6.6626,-6.6727,-6.6773,-6.6749,-6.6929,-6.6874,-6.6882,-6.6887,-6.6945,-6.6962,-6.6978,-6.6772,-6.6771,-6.677,0,0,-6.6249,-6.6286,-6.6367,-6.6404,-6.6461,-6.6478,-6.6497,-6.6549,-6.6565,-6.6656,-6.6642,-6.6699,-6.6804,-6.6841,-6.6873,-6.7002,-6.6987,-6.702,-6.7085,-6.7143,-6.7158,-6.7171,-6.7218,-6.7235,-6.7031,-6.7031,-6.7031,0,-6.6295,-6.6398,-6.6408,-6.6483,-6.6522,-6.6508,-6.6589,-6.6624,-6.6695,-6.6722,-6.6695,-6.6828,-6.686,-6.697,-6.7002,-6.7028,-6.705,-6.7015,-6.7155,-6.7168,-6.7181,-6.7226,-6.7243,-6.7035,-6.7034,-6.7034,-6.7034,0,-6.6451,-6.6523,-6.658,-6.6653,-6.6698,-6.6776,-6.6797,-6.6841,-6.684,-6.686,-6.6953,-6.6992,-6.7058,-6.7084,-6.7083,-6.7195,-6.7179,-6.7154,-6.7104,-6.7202,-6.7245,-6.7262,-6.704,-6.7039,-6.7038,-6.7037,0,0,-6.6588,-6.6669,-6.669,-6.6724,-6.6786,-6.684,-6.6916,-6.6984,-6.7022,-6.7072,-6.7136,-6.7226,-6.7204,-6.7241,-6.7243,-6.7295,-6.7396,-6.7263,-6.7265,-6.7287,-6.7523,-6.7542,-6.7562,-6.7386,-6.739,-6.7392,-6.7519,0,-6.6708,-6.6846,-6.6858,-6.6981,-6.7048,-6.7036,-6.7103,-6.7147,-6.7168,-6.7225,-6.7247,-6.7311,-6.7276,-6.7299,-6.7349,-6.7373,-6.7444,-6.7364,-6.7445,-6.7448,-6.7434,-6.7584,-6.7604,-6.7722,-6.7536,-6.7538,-6.754,0,-6.6865,-6.6923,-6.7054,-6.7109,-6.7137,-6.7197,-6.7262,-6.7317,-6.7367,-6.7378,-6.7421,-6.7417,-6.7495,-6.7443,-6.755,-6.7495,-6.7529,-6.7546,-6.7551,-6.7559,-6.7501,-6.7597,-6.776,-6.7778,-6.7566,-6.7564,-6.7562,0,-6.6954,-6.7064,-6.7158,-6.7186,-6.7252,-6.7295,-6.7324,-6.7371,-6.7412,-6.7467,-6.7493,-6.7556,-6.759,-6.7637,-6.765,-6.7611,-6.7757,-6.7706,-6.7768,-6.7768,-6.7799,-6.7797,-6.7971,-6.782,-6.782,-6.7819,-6.7819,0,-6.7086,-6.7166,-6.7199,-6.7256,-6.7346,-6.7359,-6.7447,-6.7473,-6.7516,-6.7577,-6.7569,-6.7626,-6.764,-6.7699,-6.7709,-6.7796,-6.7811,-6.7822,-6.7824,-6.7823,-6.7822,-6.7846,-6.7838,-6.7824,-6.7823,-6.7822,-6.7821,0,-6.72,-6.7225,-6.7326,-6.7382,-6.7397,-6.7461,-6.7508,-6.7562,-6.7582,-6.766,-6.7679,-6.7709,-6.7779,-6.7797,-6.7879,-6.7886,-6.7989,-6.7983,-6.7974,-6.7973,-6.8035,-6.8029,-6.823,-6.8257,-6.8088,-6.809,-6.8091,0,-6.7283,-6.7346,-6.7409,-6.7451,-6.7483,-6.755,-6.7593,-6.7608,-6.7652,-6.7715,-6.7762,-6.7831,-6.7887,-6.7999,-6.8027,-6.809,-6.8085,-6.8152,-6.8095,-6.8093,-6.8088,-6.8084,-6.8091,-6.8162,-6.8164,-6.8166,-6.8167,0,-6.7429,-6.7439,-6.7502,-6.757,-6.7622,-6.7675,-6.7726,-6.7761,-6.7783,-6.7832,-6.7905,-6.7949,-6.8035,-6.8104,-6.8168,-6.8195,-6.8185,-6.8185,-6.8203,-6.8203,-6.8196,-6.8202,-6.8004,-6.818,-6.8179,-6.8178,-6.8177,-6.8176,-6.753,-6.7586,-6.7641,-6.7712,-6.7752,-6.7801,-6.7856,-6.7885,-6.7946,-6.802,-6.8024,-6.8103,-6.8152,-6.8238,-6.8269,-6.833,-6.831,-6.8335,-6.8342,-6.8348,-6.8354,-6.8186,-6.8341,-6.8341,-6.834,-6.834,-6.834,0,-6.7676,-6.7712,-6.7777,-6.7851,-6.7907,-6.7895,-6.7951,-6.7998,-6.8069,-6.8117,-6.8174,-6.8258,-6.8325,-6.836,-6.8426,-6.8468,-6.8465,-6.8485,-6.8482,-6.8489,-6.8368,-6.8346,-6.8487,-6.8487,-6.8487,-6.8487,-6.8487,-6.8487,-6.7759,-6.7854,-6.7871,-6.7985,-6.8019,-6.8099,-6.8132,-6.8177,-6.8216,-6.8311,-6.8368,-6.8391,-6.8434,-6.8504,-6.8565,-6.8573,-6.8598,-6.8621,-6.8626,-6.8512,-6.8497,-6.8483,-6.8463,-6.8626,-6.8626,-6.8743,-6.8744,-6.8745]}]]